Showing default

FLOCK 4BE 5, 60559

Orbit data source: Space-Track

FLOCK 4BE 5, 60559 is a payload satellite owned by Planet (US) in SSO that was launched on Fri, 16 Aug 2024 UTC via an FALCON 9 launch vehicle from the Air Force Western Test Range (AFWTR). Payload-class satellites include a variety of spacecraft equipped with specific instruments for various scientific and technological missions. These include communications satellites like Starlink; space stations such as the ISS; scientific satellites like the Hubble; Earth observation satellites from companies like Planet Labs, Umbra, and HawkEye 360; GPS; miniature CubeSats for education and research; and military/defense satellites.

Loading next visibility...
Identifier
60559, 2024-149CV
Orbit
SSO
Country
Flag of USUS
Related business
Manufacturer
Planet
Mission
Operational Commercial Imaging
Bus & Motor
CUBESAT 3U, Unknown motor
Mass
5.7 kg wet, 5.7 kg dry
Launch date (UTC)
2024-08-16 (1 year ago)
Launch vehicle
FALCON 9
Launch site
Air Force Western Test Range (AFWTR)
Object type
Payload
Rocket body
Debris
Shape & HBR
Box + 2 Pan, 1.0 m
Radar Cross Section
0.072 m², Medium (>0.1 m² and < 1m²)

Expand to show TLE details & history
Last TLE update: 12 hours ago

TLE from 12 hours ago
0 FLOCK 4BE 5
1 60559U 24149CV  26034.53075189  .00020373  00000-0  59141-3 0  9996
2 60559  97.3940 117.6455 0004257  64.3214 295.8469 15.35525142 81731
Epoch: 2026-02-03T12:44Z
TLE epoch observation values (Epoch: 2026-02-03T12:44:16.963Z)
Latitude
0.00001°
Longitude
152.86446°
Altitude
461.205 km
Speed
7.637 km/s
True Right ascension
07h 50m 34s
True Declination
0° 00' 00"
Sunlit
Object was in full shadow at epoch
Visualization orbit readout
Latitude
Unknown
Longitude
Unknown
Altitude
Unknown
Speed
Unknown
Apparent Right ascension
Unknown
Apparent Declination
Unknown
Sunlit
N/A
Visualization observer readout
Local Sidereal Time
02:52:59
Azimuth
Unknown
Elevation
Unknown
Doppler factor
Unknown
Orbital elements
Apogee altitude
459.215 km
Perigee altitude
453.396 km
Semi-major axis
6,834.443 km
Eccentricity
0.00043
Inclination
97.394°
RAAN
117.6455°
Arg. of periapsis
64.3214°
True anomaly
295.80299°
Mean anomaly
295.8469°
Eccentric anomaly
295.82495°
Mean motion
3.84139 °/min
Orbital period
93.72 mins
BSTAR
0.00059141
Loading maneuver chart data...
Computing Atmospheric mass density...
Loading historical data...
Loading historical data...
Loading historical data...
Loading historical data...
Loading historical data...
Loading historical data...
Loading historical data...

Documentation

Showing up to 5 results
|